Location: Bouillancy
(49.1149°N, 2.9308°E)
Time: 08:29:17
(UTC+00:00)

Cosmos 1626 Rocket - Pass Details

Date: 30 September 2020
Orbit: 604 x 630 km, 82.5° (Epoch: 29 October)

Event Time Altitude Azimuth Distance (km) Brightness Sun altitude
Rises 19:37:36 0° 352° (N) 2,929 7.4 -21.6°
Reaches altitude 10° 19:39:53 10° 356° (N) 2,019 6.5 -21.9°
Enters shadow 19:44:08 62° 63° (ENE) 712 3.6 -22.6°
